Location: Tel Aviv
(32.0670°N, 34.7670°E)
Time: 02:01:15
(UTC+03:00)

Tiros 1 - Pass Details

Date: 20 January 2022
Orbit: 629 x 663 km, 48.4° (Epoch: 26 May)

Event Time Altitude Azimuth Distance (km) Brightness Sun altitude
Rises 07:08:06 0° 307° (NW) 2,953 9.9 4.4°
Reaches altitude 10° 07:10:27 10° 305° (NW) 2,035 9.1 4.9°
Maximum altitude 07:15:06 69° 223° (SW) 680 7.4 5.7°
Drops below altitude 10° 07:19:42 10° 140° (SE) 2,006 11.3 6.6°
Sets 07:22:00 0° 138° (SE) 2,907 12.2 7.0°
